DW3400 Weather Reports


Display with metric or nautical units.
time (UTC)temp
F
wind
direction
speed
MPH
gust
MPH
rain 1hr
in
rain 24hr
in
rain mn
in
humidity
%
barometer
mb
20211023172502 43 206 1.0 1.0 0.00 0.00 0.00 88 1020.2
20211023172002 44 206 0.0 0.0 0.00 0.00 0.00 87 1020.2
20211023171002 44 206 0.0 0.0 0.00 0.00 0.00 87 1020.2
20211023170003 44 206 0.0 0.0 0.00 0.00 0.00 86 1020.2
20211023165503 45 206 0.0 0.0 0.00 0.00 0.00 86 1020.2
20211023164503 45 226 0.0 0.0 0.00 0.00 0.00 85 1020.2
20211023164002 45 226 0.0 0.0 0.00 0.00 0.00 84 1020.2
20211023163502 45 226 0.0 1.0 0.00 0.00 0.00 84 1020.2
20211023162003 46 226 0.0 0.0 0.00 0.00 0.00 83 1020.2
20211023161003 46 226 0.0 1.0 0.00 0.00 0.00 81 1020.2
20211023160502 46 226 0.0 1.0 0.00 0.00 0.00 81 1020.2
20211023160005 46 226 0.0 1.0 0.00 0.00 0.00 81 1020.2
20211023155503 47 224 0.0 0.0 0.00 0.00 0.00 80 1020.2
20211023155003 47 224 0.0 1.0 0.00 0.00 0.00 80 1020.2
20211023154503 47 224 0.0 2.0 0.00 0.00 0.00 80 1020.2
20211023154003 47 230 0.0 2.0 0.00 0.00 0.00 80 1020.2
20211023152503 47 252 0.0 1.0 0.00 0.00 0.00 81 1020.2
20211023152003 47 252 0.0 1.0 0.00 0.00 0.00 80 1020.2
20211023151502 47 252 1.0 2.0 0.00 0.00 0.00 80 1020.2
20211023151003 47 306 0.0 2.0 0.00 0.00 0.00 79 1020.2
20211023150502 48 307 1.0 2.0 0.00 0.00 0.00 78 1020.2
20211023150003 48 302 1.0 2.0 0.00 0.00 0.00 77 1020.2
20211023145502 48 300 1.0 3.0 0.00 0.00 0.00 76 1020.2
20211023145002 49 304 1.0 3.0 0.00 0.00 0.00 75 1020.2
20211023144503 49 303 2.0 3.0 0.00 0.00 0.00 75 1020.2
20211023144003 49 310 2.0 3.0 0.00 0.00 0.00 74 1020.2
20211023143502 49 295 2.0 5.0 0.00 0.00 0.00 73 1020.2
20211023143002 50 292 4.0 6.0 0.00 0.00 0.00 72 1020.2
20211023141003 51 303 4.0 9.0 0.00 0.00 0.00 70 1020.2
20211023140503 51 299 6.0 9.0 0.00 0.00 0.00 68 1020.2
20211023140003 51 307 5.0 13.0 0.00 0.00 0.00 68 1020.2
20211023135502 51 306 6.0 12.0 0.00 0.00 0.00 68 1020.2
20211023135003 51 300 6.0 12.0 0.00 0.00 0.00 67 1020.2
20211023133502 52 299 5.0 12.0 0.00 0.00 0.00 68 1020.2
20211023132502 52 298 6.0 14.0 0.00 0.00 0.00 67 1020.2
20211023131502 52 312 5.0 12.0 0.00 0.00 0.00 67 1020.2
20211023130503 52 306 5.0 10.0 0.00 0.00 0.00 68 1020.2
20211023130003 52 308 5.0 9.0 0.00 0.00 0.00 68 1020.2
20211023125003 52 301 8.0 15.0 0.00 0.00 0.00 67 1020.2
20211023124503 52 308 7.0 13.0 0.00 0.00 0.00 66 1020.2
20211023123503 52 311 7.0 12.0 0.00 0.00 0.00 68 1020.2
20211023122502 52 304 9.0 17.0 0.00 0.00 0.00 67 1020.2
20211023121502 52 310 9.0 15.0 0.00 0.00 0.00 67 1020.2
20211023121003 52 302 9.0 17.0 0.00 0.00 0.00 66 1020.2
20211023120503 52 304 8.0 17.0 0.00 0.00 0.00 67 1020.2
20211023120002 52 304 7.0 12.0 0.00 0.00 0.00 67 1020.2
20211023115503 52 304 9.0 15.0 0.00 0.00 0.00 67 1020.2
20211023115004 51 305 8.0 20.0 0.00 0.00 0.00 67 1020.2
20211023114503 52 301 8.0 16.0 0.00 0.00 0.00 69 1020.2
20211023114003 52 306 7.0 16.0 0.00 0.00 0.00 69 1020.2
20211023113003 51 297 7.0 17.0 0.00 0.00 0.00 69 1020.2
20211023112503 51 303 7.0 13.0 0.00 0.00 0.00 70 1020.2
20211023111003 51 309 7.0 15.0 0.00 0.00 0.00 70 1020.2
20211023110502 51 300 9.0 15.0 0.00 0.00 0.00 70 1020.2
20211023104502 51 304 7.0 15.0 0.00 0.00 0.00 70 1020.2
20211023104003 51 306 7.0 15.0 0.00 0.00 0.00 72 1020.2
20211023103002 51 306 9.0 18.0 0.00 0.00 0.00 69 1020.2
20211023101003 50 297 10.0 21.0 0.00 0.00 0.00 72 1020.2
20211023100502 50 303 11.0 20.0 0.00 0.00 0.00 71 1020.2
20211023100003 50 303 9.0 16.0 0.00 0.00 0.00 73 1020.2
20211023095503 50 311 11.0 16.0 0.00 0.00 0.00 72 1020.2
20211023095003 50 305 7.0 16.0 0.00 0.01 0.00 73 1020.2
20211023094502 50 303 8.0 21.0 0.00 0.01 0.00 72 1020.2
20211023094003 50 300 9.0 17.0 0.00 0.01 0.00 73 1020.2
20211023093502 50 296 10.0 18.0 0.00 0.06 0.00 73 1020.2
20211023093003 50 308 6.0 12.0 0.00 0.07 0.00 75 1020.2
20211023092003 50 307 7.0 12.0 0.00 0.08 0.00 75 1020.2
20211023091503 50 303 6.0 13.0 0.00 0.08 0.00 75 1020.2
20211023091003 50 300 6.0 12.0 0.00 0.08 0.00 75 1020.2
20211023085503 49 300 8.0 15.0 0.00 0.09 0.00 75 1020.2
20211023085003 49 305 6.0 12.0 0.00 0.09 0.00 76 1020.2
20211023084502 49 308 5.0 10.0 0.00 0.09 0.00 77 1020.2
20211023083503 49 308 6.0 10.0 0.00 0.09 0.00 77 1020.2
20211023082503 48 305 6.0 14.0 0.00 0.09 0.00 77 1020.2
20211023081502 48 297 6.0 12.0 0.00 0.11 0.00 78 1020.2
20211023081002 48 307 6.0 10.0 0.00 0.13 0.00 77 1020.2
20211023080003 48 303 5.0 10.0 0.00 0.17 0.00 78 1020.2
20211023075504 47 309 5.0 13.0 0.00 0.18 0.00 78 1020.2
20211023074004 47 307 5.0 10.0 0.00 0.24 0.00 79 1020.2
20211023073503 47 303 5.0 10.0 0.00 0.24 0.00 80 1020.2
20211023073002 46 311 5.0 12.0 0.00 0.25 0.00 80 1020.2
20211023072503 46 303 4.0 10.0 0.00 0.26 0.00 80 1020.2
20211023072002 46 318 4.0 10.0 0.00 0.27 0.00 81 1020.2
20211023071502 46 311 3.0 8.0 0.00 0.27 0.00 81 1020.2
20211023071003 46 309 5.0 9.0 0.00 0.27 0.00 81 1020.2
20211023070502 46 306 4.0 9.0 0.00 0.27 0.00 81 1020.2
20211023070003 46 304 4.0 9.0 0.00 0.27 0.00 80 1020.2
20211023065503 46 308 4.0 10.0 0.00 0.27 0.00 80 1020.2
20211023065002 45 313 3.0 12.0 0.00 0.27 0.00 80 1020.2
20211023064503 45 312 5.0 8.0 0.00 0.28 0.00 80 1020.2
20211023063503 45 312 5.0 8.0 0.00 0.28 0.00 81 1020.2
20211023063003 45 304 3.0 7.0 0.00 0.28 0.00 81 1020.2
20211023062503 45 311 3.0 8.0 0.00 0.28 0.00 81 1020.2
20211023061002 45 312 4.0 8.0 0.00 0.31 0.00 81 1020.2
20211023060503 45 299 3.0 7.0 0.00 0.31 0.00 81 1020.2
20211023060003 45 324 3.0 6.0 0.00 0.32 0.00 81 1020.2
20211023055503 45 290 3.0 8.0 0.00 0.34 0.00 80 1020.2
20211023055003 45 279 3.0 7.0 0.00 0.35 0.00 80 1020.2
20211023054003 45 345 3.0 7.0 0.00 0.35 0.00 80 1020.2
20211023053003 45 295 3.0 9.0 0.00 0.35 0.00 80 1020.2
20211023052002 45 277 3.0 7.0 0.00 0.36 0.00 80 1020.2
20211023051504 45 298 1.0 5.0 0.00 0.39 0.00 80 1020.2
20211023051003 45 258 3.0 10.0 0.00 0.39 0.00 80 1020.2
20211023050502 45 297 4.0 9.0 0.00 0.40 0.00 80 1020.2
20211023050003 45 281 4.0 9.0 0.00 0.42 0.00 80 1020.2
20211023044502 45 317 3.0 7.0 0.00 0.43 0.00 80 1020.2
20211023044002 45 262 3.0 12.0 0.00 0.44 0.00 80 1020.2
20211023043503 45 278 3.0 10.0 0.00 0.46 0.00 80 1020.2
20211023041003 45 306 3.0 8.0 0.00 0.47 0.00 80 1020.2
20211023035503 45 320 4.0 10.0 0.00 0.50 0.00 80 1020.2
20211023035003 45 307 5.0 13.0 0.00 0.51 0.00 80 1020.2
20211023034503 46 306 4.0 8.0 0.00 0.51 0.00 80 1020.2
20211023034003 46 296 4.0 8.0 0.00 0.51 0.00 80 1020.2
20211023032503 46 310 3.0 10.0 0.00 0.51 0.00 79 1020.2
20211023031003 46 319 5.0 9.0 0.00 0.51 0.00 80 1020.2
20211023030003 47 306 5.0 10.0 0.00 0.51 0.00 79 1020.2
20211023025003 47 315 5.0 10.0 0.00 0.51 0.00 79 1020.2
20211023024003 47 318 6.0 14.0 0.00 0.51 0.00 79 1020.2
20211023023003 47 311 5.0 12.0 0.00 0.51 0.00 79 1020.2
20211023022502 47 321 5.0 15.0 0.00 0.51 0.00 79 1020.2
20211023022003 47 311 4.0 9.0 0.00 0.51 0.00 80 1020.2
20211023021503 47 322 5.0 8.0 0.00 0.51 0.00 79 1020.2
20211023021005 47 318 6.0 13.0 0.00 0.51 0.00 79 1020.2
20211023020503 46 306 6.0 10.0 0.00 0.51 0.00 79 1020.2
20211023020003 46 314 4.0 10.0 0.00 0.51 0.00 79 1020.2
20211023015502 46 290 7.0 12.0 0.00 0.51 0.00 79 1020.2
20211023014004 46 301 5.0 10.0 0.00 0.51 0.00 79 1020.2
20211023013503 46 324 5.0 14.0 0.00 0.51 0.00 79 1020.2
20211023013003 46 314 5.0 10.0 0.00 0.51 0.00 79 1020.2
20211023012502 46 319 5.0 10.0 0.00 0.51 0.00 78 1020.2
20211023012003 46 290 6.0 14.0 0.00 0.51 0.00 78 1020.2
20211023011502 46 303 7.0 12.0 0.00 0.51 0.00 78 1020.2
20211023011003 46 332 6.0 13.0 0.00 0.51 0.00 78 1020.2
20211023010502 46 299 7.0 17.0 0.00 0.51 0.00 78 1020.2
20211023010004 46 302 7.0 18.0 0.00 0.51 0.00 78 1020.2
20211023005503 46 306 8.0 15.0 0.00 0.51 0.00 79 1020.2
20211023005003 46 319 6.0 15.0 0.00 0.51 0.00 79 1020.2
20211023004503 46 315 9.0 14.0 0.00 0.51 0.00 79 1020.2
20211023004002 46 303 8.0 15.0 0.00 0.51 0.00 79 1020.2
20211023003503 46 304 6.0 10.0 0.00 0.51 0.00 79 1020.2
20211023003004 46 303 6.0 18.0 0.00 0.51 0.00 79 1020.2
20211023002002 47 311 6.0 13.0 0.00 0.51 0.00 78 1020.2
20211023000503 46 296 6.0 14.0 0.00 0.51 0.00 79 1020.2
20211023000003 46 308 6.0 12.0 0.00 0.51 0.00 79 1020.2
20211022235503 46 317 6.0 15.0 0.00 0.51 0.00 79 1020.2
20211022235002 46 333 6.0 15.0 0.00 0.51 0.00 79 1020.2
20211022234003 46 318 6.0 12.0 0.00 0.51 0.00 79 1020.2
20211022233003 47 312 6.0 14.0 0.00 0.51 0.00 79 1020.2
20211022232003 47 305 7.0 16.0 0.00 0.51 0.00 79 1020.2
20211022231003 47 304 8.0 15.0 0.00 0.51 0.00 79 1020.2
20211022230503 47 312 6.0 12.0 0.00 0.51 0.00 78 1020.2
20211022230003 47 303 7.0 16.0 0.00 0.51 0.00 78 1020.2
20211022225503 47 324 7.0 13.0 0.00 0.51 0.00 78 1020.2
20211022224503 47 298 7.0 13.0 0.00 0.51 0.00 79 1020.2
20211022224003 47 309 6.0 13.0 0.00 0.51 0.00 79 1020.2
20211022223502 47 303 7.0 15.0 0.00 0.51 0.00 79 1020.2
20211022223003 47 319 6.0 12.0 0.00 0.51 0.00 79 1020.2
20211022222503 47 315 7.0 13.0 0.00 0.51 0.00 79 1020.2
20211022221503 47 303 7.0 15.0 0.00 0.51 0.00 80 1020.2
20211022220502 46 303 6.0 17.0 0.00 0.51 0.00 82 1020.2
20211022220004 46 328 5.0 15.0 0.00 0.51 0.00 82 1020.2
20211022215503 46 298 5.0 12.0 0.00 0.51 0.51 82 1020.2
20211022215003 46 293 5.0 10.0 0.00 0.51 0.51 82 1020.2
20211022214503 46 331 5.0 15.0 0.00 0.51 0.51 82 1020.2
20211022214003 46 286 5.0 15.0 0.00 0.51 0.51 82 1020.2
20211022213003 46 299 5.0 15.0 0.00 0.51 0.51 81 1020.2
20211022212503 46 296 3.0 9.0 0.00 0.51 0.51 81 1020.2
20211022212003 46 311 4.0 15.0 0.00 0.51 0.51 81 1020.2
20211022211503 46 292 3.0 9.0 0.00 0.51 0.51 81 1020.2
20211022211003 46 274 5.0 12.0 0.00 0.51 0.51 81 1020.2
20211022205003 45 243 5.0 13.0 0.00 0.51 0.51 82 1020.2
20211022204503 45 297 5.0 12.0 0.00 0.51 0.51 82 1020.2
20211022204002 45 309 5.0 12.0 0.00 0.51 0.51 82 1020.2
20211022203503 45 318 5.0 12.0 0.00 0.51 0.51 82 1020.2
20211022202503 45 279 3.0 14.0 0.00 0.51 0.51 81 1020.2
20211022202003 45 302 4.0 12.0 0.00 0.51 0.51 80 1020.2
20211022200503 45 263 6.0 12.0 0.00 0.51 0.51 80 1020.2
20211022200003 45 268 5.0 14.0 0.00 0.51 0.51 80 1020.2
20211022195003 45 259 3.0 13.0 0.00 0.51 0.51 79 1020.2
20211022194503 45 302 4.0 12.0 0.00 0.51 0.51 79 1020.2
20211022193503 46 266 5.0 12.0 0.00 0.51 0.51 78 1020.2
20211022193003 46 299 6.0 12.0 0.00 0.51 0.51 77 1020.2
20211022192503 46 298 7.0 14.0 0.00 0.51 0.51 77 1020.2
20211022191003 46 304 7.0 15.0 0.00 0.51 0.51 76 1020.2
20211022190503 46 311 6.0 12.0 0.00 0.51 0.51 77 1020.2
20211022190002 46 315 6.0 15.0 0.00 0.51 0.51 77 1020.2
20211022185503 46 317 6.0 10.0 0.00 0.51 0.51 77 1020.2
20211022185003 46 305 6.0 12.0 0.00 0.51 0.51 77 1020.2
20211022183503 46 316 6.0 12.0 0.00 0.54 0.51 76 1020.2
20211022183003 46 312 6.0 12.0 0.00 0.54 0.51 77 1020.2
20211022182503 46 325 5.0 13.0 0.00 0.56 0.51 76 1020.2
20211022182003 46 294 6.0 18.0 0.00 0.56 0.51 77 1020.2
20211022181504 46 301 7.0 16.0 0.00 0.56 0.51 77 1020.2
20211022181002 46 305 5.0 12.0 0.00 0.56 0.51 78 1020.2
20211022180503 46 279 5.0 12.0 0.00 0.56 0.51 77 1020.2
20211022180003 46 312 3.0 13.0 0.00 0.56 0.51 77 1020.2
20211022175502 46 297 4.0 12.0 0.00 0.56 0.51 77 1020.2
20211022175004 46 275 5.0 14.0 0.00 0.56 0.51 77 1020.2
20211022174502 46 282 5.0 12.0 0.00 0.56 0.51 77 1020.2
20211022174002 46 284 4.0 12.0 0.00 0.56 0.51 77 1020.2
20211022173503 46 294 5.0 12.0 0.00 0.56 0.51 77 1020.2
20211022173003 46 289 5.0 10.0 0.00 0.56 0.51 76 1020.2